Regional Weather Roundup
Issued by NWS

Home | Current Version | Previous Version | Text Only | Print | Product List | Glossary Off
Versions: 1 2 3 4 5 6 7 8 9 10 11 12 13 14 15 16 17 18 19 20 21 22 23 24 25 26 27 28 29 30 31 32 33 34 35 36 37 38 39 40 41 42 43 44 45 46 47 48 49

000
ASUS45 KBOI 302110
RWRID
WEATHER ROUNDUP FOR IDAHO
NATIONAL WEATHER SERVICE BOISE ID
300 PM MDT TUE SEP 30 2014

NOTE: "FAIR" INDICATES FEW OR NO CLOUDS BELOW 12000 FEET
WITH NO SIGNIFICANT WEATHER AND/OR OBSTRUCTIONS TO VISIBILITY

IDZ012-014-302200-
SOUTHWEST IDAHO


CITY           SKY/WX    TMP DP  RH WIND       PRES   REMARKS
BOISE          PTSUNNY   61  36  39 NW22G29   29.98F
CALDWELL       PTSUNNY   63  37  39 NW15G22   30.01F
MOUNTAIN HOME  SUNNY     61  38  43 NW23G35   29.96F
$$

IDZ016-017-302200-
SOUTHCENTRAL IDAHO


CITY           SKY/WX    TMP DP  RH WIND       PRES   REMARKS
BURLEY         MOSUNNY   58  42  55 W22G30    29.93F
JEROME         MOSUNNY   56  39  53 W23G30    29.96S
TWIN FALLS     PTSUNNY   58  43  57 W24G31    29.96F
$$

IDZ019>023-302200-
SOUTHEAST IDAHO


CITY           SKY/WX    TMP DP  RH WIND       PRES   REMARKS
IDAHO FALLS    PTSUNNY   57  44  62 SW20G30   29.86F
POCATELLO      PTSUNNY   56  47  71 SW22G30   29.91F
REXBURG        CLOUDY    55  47  74 SW18G25   29.85F
$$

IDZ006-010-011-018-031-032-302200-
CENTRAL IDAHO MOUNTAINS


CITY           SKY/WX    TMP DP  RH WIND       PRES   REMARKS
MCCALL         MOSUNNY   52  33  48 W12       29.97S
HAILEY         MOSUNNY   59  36  41 SW10      29.88F
STANLEY          N/A     50  31  48 NW8       29.96F
SALMON         CLOUDY    52  45  76 S5        29.88F
CHALLIS        MOSUNNY   55  37  50 W16       29.86F
$$

IDZ002-004-006-007-026-302200-
NORTHERN IDAHO


CITY           SKY/WX    TMP DP  RH WIND       PRES   REMARKS
LEWISTON       CLOUDY    65  38  36 W12       29.96S
LOWELL           N/A     54  52  93 CALM      29.99S
COEUR D`ALENE  MOSUNNY   61  45  55 S13       29.90F
MULLAN PASS    FOG       36  36 100 VRB3      29.94R VSB<1/4
$$



USA.gov is the U.S. government's official web portal to all federal, state and local government web resources and services.